TimeCDT,TemperatureF,Dew PointF,Humidity,Sea Level PressureIn,VisibilityMPH,Wind Direction,Wind SpeedMPH,Gust SpeedMPH,PrecipitationIn,Events,Conditions,WindDirDegrees,DateUTC
12:15 AM,45.1,43.0,92,30.31,7.0,Calm,Calm,-,N/A,,Clear,0,2013-04-25 05:15:00
12:35 AM,45.0,42.8,92,30.30,7.0,Calm,Calm,-,N/A,,Clear,0,2013-04-25 05:35:00
12:55 AM,44.6,42.4,92,30.30,7.0,Calm,Calm,-,N/A,,Clear,0,2013-04-25 05:55:00
1:15 AM,46.2,43.7,91,30.28,10.0,Calm,Calm,-,N/A,,Clear,0,2013-04-25 06:15:00
1:35 AM,47.3,44.1,88,30.28,10.0,Calm,Calm,-,N/A,,Clear,0,2013-04-25 06:35:00
1:55 AM,47.7,44.2,88,30.27,10.0,Calm,Calm,-,N/A,,Clear,0,2013-04-25 06:55:00
2:15 AM,47.3,43.9,88,30.27,10.0,Calm,Calm,-,N/A,,Clear,0,2013-04-25 07:15:00
2:35 AM,46.6,43.0,87,30.29,10.0,Calm,Calm,-,N/A,,Clear,0,2013-04-25 07:35:00
2:55 AM,45.0,42.4,91,30.29,4.0,Calm,Calm,-,N/A,,Clear,0,2013-04-25 07:55:00
3:15 AM,44.2,42.1,92,30.30,5.0,Calm,Calm,-,N/A,,Clear,0,2013-04-25 08:15:00
3:35 AM,43.9,41.9,93,30.31,4.0,Calm,Calm,-,N/A,,Clear,0,2013-04-25 08:35:00
3:55 AM,45.1,43.2,93,30.30,7.0,Calm,Calm,-,N/A,,Clear,0,2013-04-25 08:55:00
4:15 AM,45.5,43.3,92,30.31,7.0,Calm,Calm,-,N/A,,Clear,0,2013-04-25 09:15:00
4:35 AM,44.8,42.8,93,30.32,5.0,Calm,Calm,-,N/A,,Clear,0,2013-04-25 09:35:00
4:55 AM,44.1,41.9,92,30.33,5.0,Calm,Calm,-,N/A,,Clear,0,2013-04-25 09:55:00
5:15 AM,43.7,41.4,91,30.33,4.0,Calm,Calm,-,N/A,,Clear,0,2013-04-25 10:15:00
5:35 AM,43.0,40.8,92,30.33,4.0,Calm,Calm,-,N/A,,Clear,0,2013-04-25 10:35:00
5:55 AM,42.8,40.6,92,30.33,4.0,Calm,Calm,-,N/A,,Clear,0,2013-04-25 10:55:00
6:15 AM,43.9,41.9,93,30.33,5.0,Calm,Calm,-,N/A,,Clear,0,2013-04-25 11:15:00
6:35 AM,44.8,42.8,93,30.35,5.0,Calm,Calm,-,N/A,,Clear,0,2013-04-25 11:35:00
6:55 AM,44.8,42.6,92,30.35,5.0,Calm,Calm,-,N/A,,Clear,0,2013-04-25 11:55:00
7:15 AM,46.4,43.9,91,30.35,7.0,Calm,Calm,-,N/A,,Clear,0,2013-04-25 12:15:00
7:35 AM,48.4,45.3,89,30.35,10.0,Calm,Calm,-,N/A,,Clear,0,2013-04-25 12:35:00
7:55 AM,49.6,45.7,86,30.37,10.0,Calm,Calm,-,N/A,,Clear,0,2013-04-25 12:55:00
8:15 AM,51.6,45.5,80,30.38,10.0,Calm,Calm,-,N/A,,Clear,0,2013-04-25 13:15:00
8:35 AM,52.0,44.2,75,30.37,10.0,East,5.8,-,N/A,,Clear,80,2013-04-25 13:35:00
8:55 AM,53.6,43.7,69,30.38,10.0,NE,4.6,-,N/A,,Clear,40,2013-04-25 13:55:00
9:15 AM,54.7,43.0,65,30.38,10.0,ENE,3.5,-,N/A,,Clear,70,2013-04-25 14:15:00
9:35 AM,55.8,43.0,62,30.39,10.0,East,6.9,-,N/A,,Clear,90,2013-04-25 14:35:00
9:55 AM,57.2,42.4,58,30.40,10.0,ENE,5.8,-,N/A,,Clear,70,2013-04-25 14:55:00
10:15 AM,58.5,42.4,55,30.40,10.0,NE,4.6,-,N/A,,Clear,50,2013-04-25 15:15:00
10:35 AM,59.9,41.0,50,30.40,10.0,ENE,5.8,18.4,N/A,,Clear,70,2013-04-25 15:35:00
10:55 AM,61.2,40.6,47,30.40,10.0,East,10.4,16.1,N/A,,Clear,80,2013-04-25 15:55:00
11:35 AM,62.6,39.0,42,30.39,10.0,ENE,8.1,16.1,N/A,,Clear,70,2013-04-25 16:35:00
11:55 AM,63.9,38.5,39,30.39,10.0,NE,8.1,-,N/A,,Clear,50,2013-04-25 16:55:00
12:15 PM,64.4,37.6,37,30.38,10.0,ENE,5.8,18.4,N/A,,Clear,60,2013-04-25 17:15:00
12:35 PM,65.1,36.3,34,30.38,10.0,ENE,6.9,16.1,N/A,,Clear,70,2013-04-25 17:35:00
12:55 PM,65.3,35.2,33,30.37,10.0,ENE,9.2,17.3,N/A,,Clear,60,2013-04-25 17:55:00
1:15 PM,66.7,38.1,35,30.37,10.0,NNE,6.9,-,N/A,,Clear,20,2013-04-25 18:15:00
1:35 PM,67.3,38.5,35,30.36,10.0,East,6.9,-,N/A,,Clear,80,2013-04-25 18:35:00
1:55 PM,67.1,40.1,37,30.36,10.0,Calm,Calm,-,N/A,,Clear,0,2013-04-25 18:55:00
2:15 PM,68.7,40.8,36,30.35,10.0,Calm,Calm,-,N/A,,Clear,0,2013-04-25 19:15:00
2:35 PM,67.8,40.3,37,30.35,10.0,ENE,6.9,-,N/A,,Clear,70,2013-04-25 19:35:00
2:55 PM,68.7,41.2,37,30.34,10.0,East,3.5,-,N/A,,Clear,90,2013-04-25 19:55:00
3:15 PM,68.9,39.7,35,30.34,10.0,Calm,Calm,-,N/A,,Clear,0,2013-04-25 20:15:00
3:35 PM,69.3,40.3,35,30.32,10.0,East,5.8,-,N/A,,Clear,90,2013-04-25 20:35:00
3:55 PM,70.0,39.2,33,30.32,10.0,East,6.9,-,N/A,,Clear,90,2013-04-25 20:55:00
4:15 PM,70.3,37.8,30,30.31,10.0,NE,5.8,-,N/A,,Clear,50,2013-04-25 21:15:00
4:35 PM,70.2,37.4,30,30.30,10.0,Calm,Calm,-,N/A,,Clear,0,2013-04-25 21:35:00
4:55 PM,70.2,39.2,32,30.30,10.0,ENE,3.5,-,N/A,,Clear,60,2013-04-25 21:55:00
5:15 PM,70.2,37.2,30,30.30,10.0,Calm,Calm,-,N/A,,Clear,0,2013-04-25 22:15:00
5:35 PM,69.6,37.9,31,30.30,10.0,Calm,Calm,-,N/A,,Clear,0,2013-04-25 22:35:00
5:55 PM,69.3,39.6,34,30.30,10.0,Calm,Calm,-,N/A,,Clear,0,2013-04-25 22:55:00
6:15 PM,69.3,39.7,34,30.30,10.0,Calm,Calm,-,N/A,,Clear,0,2013-04-25 23:15:00
6:35 PM,68.4,41.4,37,30.30,10.0,Calm,Calm,-,N/A,,Clear,0,2013-04-25 23:35:00
6:55 PM,67.1,41.0,39,30.30,10.0,Calm,Calm,-,N/A,,Clear,0,2013-04-25 23:55:00
7:15 PM,65.5,42.6,43,30.30,10.0,Calm,Calm,-,N/A,,Clear,0,2013-04-26 00:15:00
7:35 PM,62.6,45.7,54,30.29,10.0,Calm,Calm,-,N/A,,Clear,0,2013-04-26 00:35:00
7:55 PM,58.6,47.3,66,30.29,10.0,Calm,Calm,-,N/A,,Clear,0,2013-04-26 00:55:00
8:15 PM,56.5,47.3,71,30.29,10.0,Calm,Calm,-,N/A,,Clear,0,2013-04-26 01:15:00
8:35 PM,55.4,47.7,75,30.29,10.0,Calm,Calm,-,N/A,,Clear,0,2013-04-26 01:35:00
8:55 PM,54.3,47.3,77,30.29,10.0,Calm,Calm,-,N/A,,Clear,0,2013-04-26 01:55:00
9:15 PM,52.9,47.7,82,30.30,10.0,Calm,Calm,-,N/A,,Clear,0,2013-04-26 02:15:00
9:35 PM,52.9,46.9,80,30.30,10.0,Calm,Calm,-,N/A,,Clear,0,2013-04-26 02:35:00
9:55 PM,52.2,46.9,82,30.30,10.0,Calm,Calm,-,N/A,,Clear,0,2013-04-26 02:55:00
10:15 PM,52.0,47.3,84,30.30,10.0,Calm,Calm,-,N/A,,Clear,0,2013-04-26 03:15:00
10:35 PM,50.9,47.7,89,30.30,10.0,Calm,Calm,-,N/A,,Clear,0,2013-04-26 03:35:00
10:55 PM,51.1,47.3,87,30.30,10.0,Calm,Calm,-,N/A,,Clear,0,2013-04-26 03:55:00
11:15 PM,50.9,47.3,87,30.29,10.0,Calm,Calm,-,N/A,,Clear,0,2013-04-26 04:15:00
11:35 PM,50.4,47.3,89,30.30,10.0,Calm,Calm,-,N/A,,Clear,0,2013-04-26 04:35:00
11:55 PM,50.9,47.3,87,30.29,10.0,Calm,Calm,-,N/A,,Clear,0,2013-04-26 04:55:00